Weather in Magistralny

Russia / Omsk Oblast     54°55′29″N   73°14′17″E
temp.,
°C
wind,
m/s
gust,
m/s
humid.,
%
clouds,
%
prec.,
mm/h
press.,
hPa
HPBL,
m
28 february, sun
sun2800:00−29se479915 0.0 103196
03:00−27se499889 0.0 1029150
06:00−24se5109495 0.0 1026221
09:00−22se51094100 0.0 1023289
12:00−18ese61095100 0.1 1021346
15:00−16ese61093100 0.1 1019414
18:00−17e61193100 0.1 1016363
21:00−16e61195100 0.1 1013333
1 march, mon
mon100:00−15e61195100 0.9 1009332
03:00−13ene61294100 1.3 1007361
06:00−14ene61095100 1.9 1006341
09:00−14ne5995100 0.9 1006334
12:00−12ne5794100 1.6 1007360
15:00−12nne4693100 0.4 1008426
18:00−13n4694100 0.6 1011391
21:00−16nnw339788 0.1 101339
2 march, tue
tue200:00−18nw239884 0.1 101521
03:00−20nw2210085 0.0 101620
06:00−21wnw1210087 0.0 101620
09:00−18wsw119792 0.1 101674
12:00−15sw229196 0.2 1016256
15:00−13ssw2389100 0.1 1016391
18:00−14ssw2294100 0.1 101543
21:00−17ssw229790 0.1 101520
3 march, wed
wed300:00−18ssw229883 0.1 101520
03:00−19ssw229880 0.1 101420
06:00−19ssw239983 0.1 101520
09:00−18s349889 0.0 101576
12:00−15ssw579389 0.1 1015319
15:00−14s599293 0.0 1014368
18:00−14s5109496 0.1 1014388
21:00−12s51193100 0.1 1012413
4 march, thu
thu400:00−10s61193100 0.3 1012429
03:00−9s61194100 0.3 1010422
06:00−6s61393100 0.4 1009498
09:00−5s71394100 0.2 1007529
12:00−3s71294100 0.5 1006688
15:00−1ssw71194100 0.4 1004719
18:00−3s61193100 1.1 1004601
21:00−3s61196100 0.1 1003498